Flag for U.S.A. Weather past 2 weeks in Hialeah, Florida, U.S.A.

Now
77 °F

Clear.


Feels Like: 79 °F
Forecast: 79 / 87 °F
Wind: 6 mph from East

Location: Opa Locka Airport

Current Time: May 24, 2015 at 6:21:55 AM

Latest Report: May 24, 2015 at 5:53 AM


Visibility: 10 mi

Pressure: 30.14 "Hg

Humidity: 77%

Dew point: 69 °F

Location of HialeahLocation

Historic Weather in Hialeah — Graph

°F

Hialeah temperature yesterday

Maximum temperature yesterday: 89 °F (at 12:53 PM)
Minimum temperature yesterday: 73 °F (at 5:53 AM)
Average temperature yesterday: 82 °F

Past Weeks' High & Low Weather Summary

 TemperatureHumidityPressure
High93 °F (May 21, 1:53 PM)94% (May 20, 4:53 AM)30.21 "Hg (May 20, 4:53 AM)
Low70 °F (May 9, 5:53 AM)42% (May 20, 2:53 PM)29.95 "Hg (May 20, 6:53 PM)
Average81 °F71%30.10 "Hg
* Reported May 9 4:53 AM — May 24 4:53 AM, Hialeah, Weather by CustomWeather, © 2015

Note: Actual official high and low records may vary slightly from our data, if they occured in-between our weather recording intervals... More about our weather records

Advertising

Hialeah weather history for previous 24 hours

 ConditionsComfort  
Time TempWeatherWind HumidityBarometerVisibility
4:53 AM
Sun, May 24
78 °FClear.8 mph71%30.14 "Hg10 mi
3:53 AM79 °FClear.9 mph74%30.13 "Hg10 mi
2:53 AM80 °FPassing clouds.12 mph74%30.14 "Hg10 mi
1:53 AM80 °FPassing clouds.10 mph74%30.15 "Hg10 mi
12:53 AM81 °FClear.10 mph74%30.16 "Hg10 mi
11:53 PM
Sat, May 23
80 °FClear.9 mph76%30.17 "Hg10 mi
10:53 PM81 °FPassing clouds.13 mph74%30.17 "Hg10 mi
9:53 PM81 °FPassing clouds.16 mph74%30.17 "Hg10 mi
8:53 PM82 °FPassing clouds.12 mph72%30.16 "Hg10 mi
7:53 PM83 °FPartly sunny.10 mph70%30.16 "Hg10 mi
7:03 PM83 °FPartly sunny.13 mph70%30.16 "Hg10 mi
6:53 PM84 °FScattered clouds.13 mph67%30.16 "Hg10 mi
5:53 PM84 °FSunny.14 mph63%30.14 "Hg10 mi
4:53 PM88 °FSunny.17 mph54%30.14 "Hg10 mi
3:53 PM88 °FPassing clouds.13 mph57%30.16 "Hg10 mi
2:53 PM89 °FScattered clouds.10 mph57%30.17 "Hg10 mi
1:53 PM88 °FScattered clouds.12 mph59%30.19 "Hg10 mi
12:53 PM89 °FScattered clouds.13 mph55%30.20 "Hg10 mi
11:53 AM87 °FBroken clouds.10 mph61%30.21 "Hg10 mi
10:53 AM86 °FPassing clouds.7 mph65%30.20 "Hg10 mi
9:53 AM85 °FScattered clouds.8 mph68%30.19 "Hg10 mi
8:53 AM82 °FPassing clouds.8 mph77%30.19 "Hg10 mi
7:53 AM78 °FSunny.8 mph84%30.17 "Hg10 mi
6:53 AM74 °FClear.No wind91%30.14 "Hg10 mi
Weather by CustomWeather, © 2015

See weather overviewHow to use our weather pages